Minnesota City, MN

1:52 PM CDT on September 26, 2016 (GMT -0500)
Winona Municipal-Conrad

Weather History for KONA - April, 2013

Change the Weather History Date:

Thursday, April 18, 2013

  Actual Average Record
Temperature  
Mean Temperature 36 °F -  
Max Temperature 39 °F 58 °F 84 °F (2002)
Min Temperature 33 °F 37 °F 28 °F (2001)
Degree Days  
Heating Degree Days 29    
Moisture  
Dew Point 34 °F    
Average Humidity 91    
Maximum Humidity 100    
Minimum Humidity 81    
Precipitation  
Precipitation 0.25 in - - ()
Sea Level Pressure  
Sea Level Pressure 29.57 in    
Wind  
Wind Speed 6 mph (North)    
Max Wind Speed 13 mph    
Max Gust Speed 18 mph    
Visibility 6 miles    
Events Rain , Snow    
Averages and records for this station are not official NWS values.
T = Trace of Precipitation, MM = Missing Value Source: NWS Daily Summary

Daily Weather History Graph

Daily Weather History Graph

Search for Another Location

Airport or City:

Trip Planner

Search our weather history database for the weather conditions in past years. The results will help you decide how hot, cold, wet, or windy it might be!

Date:

Astronomy

Apr. 18, 2013 Rise Set
Actual Time 6:18 AM CDT 7:54 PM CDT
Civil Twilight 5:47 AM CDT 8:25 PM CDT
Nautical Twilight 5:10 AM CDT 9:02 PM CDT
Astronomical Twilight 4:31 AM CDT 9:42 PM CDT
Moon 12:27 PM CDT (4/18) 2:12 AM CDT (4/18)
Length of Visible Light 14h 37m
Length of Day
13h 36m
First Quarter, 52% of the Moon is Illuminated
Apr 18
First Quarter
Apr 25
Full
May 2
Last Quarter
May 9
New
May 17
First Quarter

Hourly Weather History & Observations

Time (CDT) Temp. Windchill Dew Point Humidity Pressure Visibility Wind Dir Wind Speed Gust Speed Precip Events Conditions
12:09 AM 37.4 °F 34.9 °F 33.8 °F 87% 29.85 in 10.0 mi North 3.5 mph - N/A Rain Light Rain
12:30 AM 35.6 °F 29.9 °F 32.0 °F 87% 29.82 in 2.5 mi NE 6.9 mph - 0.05 in Rain Rain
12:49 AM 35.6 °F 30.7 °F 32.0 °F 87% 29.82 in 10.0 mi NE 5.8 mph - 0.05 in   Overcast
1:09 AM 35.6 °F 31.7 °F 32.0 °F 87% 29.81 in 10.0 mi NNE 4.6 mph - N/A   Overcast
1:30 AM 35.6 °F - 32.0 °F 87% 29.79 in 10.0 mi Calm Calm - N/A   Overcast
1:49 AM 35.6 °F 30.7 °F 32.0 °F 87% 29.79 in 10.0 mi NNE 5.8 mph - N/A   Overcast
2:09 AM 35.6 °F 31.7 °F 32.0 °F 87% 29.76 in 5.0 mi North 4.6 mph - N/A   Overcast
2:30 AM 35.6 °F - 32.0 °F 87% 29.76 in 4.0 mi Calm Calm - N/A   Overcast
2:49 AM 35.6 °F 31.7 °F 33.8 °F 93% 29.77 in 7.0 mi East 4.6 mph - N/A   Overcast
3:09 AM 35.6 °F 30.7 °F 33.8 °F 93% 29.76 in 10.0 mi NE 5.8 mph - N/A   Overcast
3:30 AM 35.6 °F 32.8 °F 33.8 °F 93% 29.74 in 10.0 mi North 3.5 mph - N/A   Overcast
3:49 AM 35.6 °F - 33.8 °F 93% 29.72 in 7.0 mi Calm Calm - N/A   Overcast
4:10 AM 35.6 °F - 33.8 °F 93% 29.71 in 3.0 mi Calm Calm - N/A   Overcast
4:30 AM 35.6 °F 32.8 °F 33.8 °F 93% 29.72 in 3.0 mi North 3.5 mph - N/A   Light Drizzle
4:49 AM 35.6 °F - 33.8 °F 93% 29.71 in 2.5 mi Calm Calm - 0.01 in   Light Drizzle
5:08 AM 35.6 °F - 33.8 °F 93% 29.71 in 4.0 mi Calm Calm - N/A   Light Drizzle
5:30 AM 35.6 °F 31.7 °F 33.8 °F 93% 29.69 in 4.0 mi NNW 4.6 mph - 0.01 in   Light Drizzle
5:49 AM 33.8 °F 27.0 °F 33.8 °F 100% 29.70 in 7.0 mi NW 8.1 mph - 0.01 in   Overcast
6:10 AM 33.8 °F 26.4 °F 32.0 °F 93% 29.71 in 10.0 mi NNW 9.2 mph - N/A   Overcast
6:30 AM 33.8 °F 26.4 °F 32.0 °F 93% 29.72 in 10.0 mi NNW 9.2 mph - N/A   Overcast
6:49 AM 33.8 °F 25.3 °F 32.0 °F 93% 29.72 in 10.0 mi NW 11.5 mph - N/A   Overcast
7:10 AM 33.8 °F 27.0 °F 32.0 °F 93% 29.73 in 10.0 mi NNW 8.1 mph - N/A   Light Drizzle
7:30 AM 33.8 °F 30.8 °F 32.0 °F 93% 29.72 in 7.0 mi North 3.5 mph - N/A   Light Drizzle
7:49 AM 33.8 °F 28.6 °F 32.0 °F 93% 29.68 in 4.0 mi NNE 5.8 mph - N/A Rain Light Rain
8:10 AM 33.8 °F 30.8 °F 32.0 °F 93% 29.67 in 10.0 mi North 3.5 mph - N/A   Overcast
8:30 AM 35.6 °F 28.0 °F 33.8 °F 93% 29.61 in 10.0 mi NNE 10.4 mph 17.3 mph N/A   Overcast
8:49 AM 35.6 °F 29.2 °F 33.8 °F 93% 29.63 in 10.0 mi North 8.1 mph - N/A   Overcast
9:09 AM 35.6 °F 29.9 °F 33.8 °F 93% 29.63 in 10.0 mi NNE 6.9 mph - N/A   Overcast
9:30 AM 37.4 °F 33.8 °F 33.8 °F 87% 29.63 in 10.0 mi North 4.6 mph - N/A   Overcast
9:49 AM 37.4 °F 33.8 °F 33.8 °F 87% 29.60 in 10.0 mi North 4.6 mph - N/A   Overcast
10:09 AM 37.4 °F 33.8 °F 33.8 °F 87% 29.62 in 10.0 mi NNE 4.6 mph - N/A   Overcast
10:30 AM 37.4 °F 33.8 °F 33.8 °F 87% 29.61 in 10.0 mi North 4.6 mph - N/A   Overcast
10:49 AM 37.4 °F 32.8 °F 33.8 °F 87% 29.60 in 10.0 mi NNE 5.8 mph - N/A   Overcast
11:09 AM 37.4 °F 33.8 °F 33.8 °F 87% 29.59 in 10.0 mi NNE 4.6 mph - N/A   Overcast
11:30 AM 37.4 °F 32.1 °F 32.0 °F 81% 29.60 in 10.0 mi NNE 6.9 mph - N/A   Overcast
11:49 AM 37.4 °F 31.4 °F 32.0 °F 81% 29.59 in 10.0 mi NNE 8.1 mph - N/A   Overcast
12:09 PM 37.4 °F 32.8 °F 32.0 °F 81% 29.58 in 10.0 mi NE 5.8 mph - N/A   Overcast
12:36 PM 37.4 °F 31.4 °F 33.8 °F 87% 29.55 in - ENE 8.1 mph - 0.02 in   Overcast
12:55 PM 37.4 °F 31.4 °F 33.8 °F 87% 29.54 in 10.0 mi ENE 8.1 mph - 0.02 in   Overcast
1:16 PM 37.4 °F 32.8 °F 35.6 °F 93% 29.52 in 4.0 mi ENE 5.8 mph - N/A   Overcast
1:35 PM 37.4 °F 32.8 °F 35.6 °F 93% 29.51 in 2.0 mi NE 5.8 mph - N/A   Overcast
1:55 PM 37.4 °F 32.8 °F 35.6 °F 93% 29.51 in 1.2 mi NE 5.8 mph - 0.02 in Rain Rain
2:16 PM 37.4 °F 32.8 °F 35.6 °F 93% 29.50 in 4.0 mi North 5.8 mph - 0.04 in Rain Rain
2:35 PM 37.4 °F 32.1 °F 35.6 °F 93% 29.48 in 3.0 mi NNE 6.9 mph - 0.05 in   Drizzle
2:55 PM 37.4 °F 30.8 °F 35.6 °F 93% 29.46 in 2.5 mi NE 9.2 mph - 0.07 in Rain Rain
3:35 PM 37.4 °F 32.8 °F 35.6 °F 93% 29.45 in 2.5 mi NE 5.8 mph - 0.04 in   Drizzle
3:55 PM 37.4 °F - 35.6 °F 93% 29.46 in 1.5 mi Calm Calm - 0.05 in   Drizzle
4:16 PM 39.2 °F 35.0 °F 35.6 °F 87% 29.44 in 5.0 mi NNW 5.8 mph - 0.02 in Rain Rain
4:35 PM 37.4 °F 31.4 °F 35.6 °F 93% 29.44 in 2.0 mi NNW 8.1 mph - 0.03 in   Overcast
4:55 PM 37.4 °F 31.4 °F 35.6 °F 93% 29.42 in 2.0 mi NNW 8.1 mph - 0.03 in   Light Drizzle
5:16 PM 37.4 °F 30.8 °F 35.6 °F 93% 29.41 in 2.5 mi NW 9.2 mph - 0.01 in Rain Light Rain
5:35 PM 37.4 °F 30.8 °F 35.6 °F 93% 29.41 in 2.0 mi NW 9.2 mph - 0.02 in   Drizzle
5:55 PM 37.4 °F 31.4 °F 35.6 °F 93% 29.41 in 3.0 mi NNW 8.1 mph - 0.03 in Rain Light Rain
6:16 PM 37.4 °F 31.4 °F 35.6 °F 93% 29.40 in 3.0 mi NNW 8.1 mph - N/A   Overcast
6:35 PM 37.4 °F 31.4 °F 35.6 °F 93% 29.39 in 2.5 mi NNW 8.1 mph - N/A   Light Drizzle
6:55 PM 37.4 °F 32.1 °F 35.6 °F 93% 29.39 in 3.0 mi NW 6.9 mph - N/A   Overcast
7:16 PM 35.6 °F 28.6 °F 33.8 °F 93% 29.39 in 1.8 mi NW 9.2 mph - N/A   Overcast
7:35 PM 35.6 °F 28.6 °F 33.8 °F 93% 29.39 in 2.5 mi NW 9.2 mph - N/A   Overcast
7:56 PM 35.6 °F 29.2 °F 33.8 °F 93% 29.40 in 2.5 mi WNW 8.1 mph - N/A   Overcast
8:15 PM 35.6 °F 29.9 °F 33.8 °F 93% 29.40 in 2.5 mi WNW 6.9 mph - N/A   Overcast
8:36 PM 35.6 °F 28.0 °F 33.8 °F 93% 29.41 in 2.5 mi NW 10.4 mph - N/A   Overcast
8:56 PM 35.6 °F 28.6 °F 33.8 °F 93% 29.42 in 3.0 mi WNW 9.2 mph 16.1 mph N/A Rain Rain
9:15 PM 35.6 °F 28.6 °F 32.0 °F 87% 29.43 in 10.0 mi WNW 9.2 mph - 0.01 in Rain Light Rain
9:36 PM 33.8 °F 26.4 °F 32.0 °F 93% 29.43 in 10.0 mi WNW 9.2 mph - 0.01 in Rain Light Rain
9:56 PM 33.8 °F 25.8 °F 32.0 °F 93% 29.43 in 10.0 mi WNW 10.4 mph 18.4 mph N/A   Overcast
10:35 PM 33.8 °F 25.8 °F 32.0 °F 93% 29.41 in 5.0 mi WNW 10.4 mph - N/A   Overcast
10:56 PM 33.8 °F 25.8 °F 32.0 °F 93% 29.40 in 7.0 mi NW 10.4 mph 16.1 mph N/A   Overcast
11:15 PM 33.8 °F 25.3 °F 32.0 °F 93% 29.39 in 10.0 mi WNW 11.5 mph 18.4 mph N/A   Overcast
11:35 PM 33.8 °F 24.8 °F 32.0 °F 93% 29.39 in 10.0 mi WNW 12.7 mph 17.3 mph N/A   Overcast
11:56 PM 33.8 °F 25.8 °F 32.0 °F 93% 29.39 in 5.0 mi WNW 10.4 mph 18.4 mph N/A Snow Light Snow